Terug naar catalogus

FENGYUN 1C DEB

ActiefSSO
NORAD 33710·DEBRIS·🇨🇳 China

Gelanceerd May 10, 1999 vanaf Taiyuan Satellite Launch Center

Loading…

Volgende Passages (komende 24 uur)

TLE

VerouderendSource: Space-Track

Epoch: Sep 9, 2026, 12:23 UTC

1 33710U 99025DGX 26252.51604538  .00000890  00000-0  49882-3 0  9999
2 33710  98.9847 356.7761 0055688 104.0927 256.6443 14.12488296714783

Volg FENGYUN 1C DEB in realtime met AllMySat

Download on the App Store